sat.trackr.live / text

‹ back to catalog

STARLINK-37653

NORAD 69140 · 2026-110S

PAYLOAD ACTIVE UNKNOWN

§ Identity

Operator
Country
US
Launch date
2026-05-20
Launch site
AFWTR
Launch vehicle
Mass (kg)
RCS (m²)

Purposes: comms

External: N2YO · Heavens-Above · Gunter

§ Orbital elements

Epoch: 2026-09-18T23:16:43.321440Z

Period
93.91 min
Inclination
97.2868°
Eccentricity
0.0003835
Mean motion
15.33452283 rev/d
Perigee alt
462.9 km
Apogee alt
468.1 km
Semi-major
6,843.7 km
B*
4.1735e-4
RAAN
97.0811°
Arg perigee
120.2946°
Mean anomaly
239.8676°
Rev number
1,998

§ Raw data

STARLINK-376531 69140U 26110S   26261.96994585  .00013428  00000+0  41735-3 0  99922 69140  97.2868  97.0811 0003835 120.2946 239.8676 15.33452283 19985

JSON: /api/v1/satellites/69140 · /tle

For live sub-satellite position, see the globe view (requires WebGL).

§ Visibility from observer

Set your observer location to see the next 7 days of passes ≥ 10°. The values pass through the URL so the page stays shareable.

No JS? Fill the form by hand. The geolocation button needs JavaScript.